This demonstration page uses our WeatherBlox Daily Observations layout. Learn more.

Left ArrowRight Arrow

39.09545, -121.55219

Hourly Observations for December 7, 2022

Temp ( °F °C ) Dew Point ( °F °C ) Humidity (%) Winds ( mph kmh ) Pressure ( in mb ) Visibility ( mi km ) Precip ( " mm )
12:55 am 00:55 Clear 38 3.3 35 1.8 90 90 N 3 6 30.11 1020 10 16 0.00 0.00
1:55 am 01:55 Clear 38 3.2 35 1.7 90 90 ESE 3 6 30.12 1020 10 16 0.00 0.00
2:55 am 02:55 Clear 37 2.5 34 1.3 92 92 E 3 6 30.13 1020 10 16 0.00 0.00
3:55 am 03:55 Clear 36 2.2 34 0.9 91 91 ESE 6 9 30.14 1021 10 16 0.00 0.00
4:55 am 04:55 Clear 35 1.7 32 -0.1 88 88 E 7 11 30.14 1021 10 16 0.00 0.00
5:55 am 05:55 Clear 32 -0.1 29 -1.4 91 91 ESE 5 7 30.16 1021 10 16 0.00 0.00
6:55 am 06:55 Clear 34 1.1 31 -0.7 88 88 E 5 7 30.18 1022 10 16 0.00 0.00
7:55 am 07:55 Sunny 35 1.5 31 -0.6 86 86 E 6 9 30.19 1022 10 16 0.00 0.00
8:55 am 08:55 Sunny 43 6.2 38 3.2 81 81 ESE 3 6 30.21 1023 10 16 0.00 0.00
9:55 am 09:55 Sunny 47 8.6 39 3.8 72 72 Calm 30.23 1024 10 16 0.00 0.00
10:55 am 10:55 Sunny 51 10.5 37 2.8 59 59 SSW 6 9 30.24 1024 10 16 0.00 0.00
11:55 am 11:55 Sunny 53 11.5 40 4.5 62 62 S 8 13 30.22 1023 10 16 0.00 0.00
12:55 pm 12:55 Sunny 55 12.5 43 5.9 64 64 S 6 9 30.22 1023 10 16 0.00 0.00
1:55 pm 13:55 Sunny 56 13.1 44 6.4 64 64 S 8 13 30.21 1023 10 16 0.00 0.00
2:55 pm 14:55 Sunny 56 13.5 44 6.4 62 62 S 6 9 30.22 1023 10 16 0.00 0.00
3:55 pm 15:55 Sunny 55 12.9 41 5.1 59 59 S 5 7 30.22 1023 10 16 0.00 0.00
4:55 pm 16:55 Clear 49 9.4 41 5 74 74 S 3 6 30.22 1023 10 16 0.00 0.00
5:55 pm 17:55 Clear 47 8.4 39 3.8 73 73 E 6 9 30.22 1023 10 16 0.00 0.00
6:55 pm 18:55 Clear 44 6.9 38 3.1 77 77 E 8 13 30.23 1024 10 16 0.00 0.00
7:55 pm 19:55 Clear 45 7.1 38 3.2 76 76 E 8 13 30.25 1024 10 16 0.00 0.00
8:55 pm 20:55 Clear 44 6.7 37 3 77 77 E 7 11 30.27 1025 10 16 0.00 0.00
9:55 pm 21:55 Clear 41 5 36 2.4 83 83 ENE 3 6 30.28 1025 10 16 0.00 0.00
10:55 pm 22:55 Clear 42 5.6 36 2.4 80 80 E 5 7 30.29 1026 10 16 0.00 0.00
11:55 pm 23:55 Mostly Clear 42 5.6 37 2.6 81 81 E 6 9 30.29 1026 10 16 0.00 0.00

Powered by AerisWeather